COSMOS 2539

Last updated on Tue Oct 15 2024 00:02:41 GMT+0000 (Coordinated Universal Time)

1 44457U 19048A 24288.16160600 .00000079 00000+0 00000+0 0 9994 2 44457 0.0158 149.9134 0000083 45.4670 258.0140 1.00271374 19092
UTC large
Height (km)
Speed (km/s)
/
Latitude / Longitude
Inclination (degrees)
Orbital Period (minutes)
Azimuth
Elevation
Range (km)
Doppler Factor

Next 0 passes for location: London (51.5072 / 0.1276)

Sorry there are no passes over London.